Location: ??????
(40.9930°N, 22.8743°E)
Time: 07:10:02
(UTC+00:00)

Daily predictions for brighter satellites

Satellite Brightness Start Highest point End
(mag) Time Altitude Azimuth Time Altitude Azimuth Time Altitude Azimuth
SL-08 RB Rocket 4.2 16:31:28 10° S 16:36:01 70° WSW 16:40:38 10° NNW
SL-4 R/B 4.0 16:34:23 10° NW 16:37:47 21° N 16:41:20 10° ENE
ARGOS Delta rocket 4.4 16:33:09 10° NNE 16:38:08 40° E 16:42:50 10° SSE
Okean O Rocket 2.6 16:39:27 10° SE 16:43:05 27° ENE 16:46:45 10° N
SKYMED 3 4.4 16:39:13 10° NNE 16:43:20 78° E 16:47:26 10° S
Cosmos 2219 3.2 16:38:33 10° NNW 16:44:21 78° ENE 16:50:05 10° SSE
Meteor 1-21 4.3 16:39:01 10° N 16:44:46 88° W 16:50:24 10° S
Cosmos 2242 Rocket 4.2 16:40:29 10° NNW 16:44:50 61° W 16:49:09 10° S
DELTA 2 R/B(2) 3.8 16:46:11 10° W 16:47:54 56° S 16:50:37 10° ESE
GENESIS II 4.3 16:46:26 10° NW 16:50:32 86° WSW 16:54:34 10° SSE
Cosmos 2263 Rocket 3.1 16:46:51 10° N 16:51:45 29° NE 16:56:38 10° ESE
Cosmos 1242 Rocket 2.5 16:48:30 10° S 16:52:00 58° E 16:55:30 10° NNE
CZ-2C R/B 2.5 16:49:52 10° WSW 16:52:28 23° S 16:55:08 10° SE
Spot 1 3.9 16:48:32 10° NNE 16:52:45 72° ESE 16:56:49 10° S
COBE Rocket 4.0 16:52:14 10° SSE 16:57:01 53° ENE 17:01:41 10° N
YAOGAN 1 2.9 16:53:00 10° SE 16:57:06 45° ENE 17:01:14 10° N
SL-14 R/B 4.0 16:53:35 10° NNE 16:57:12 33° ENE 17:00:49 10° SE
Cosmos 1805 3.3 16:53:35 10° S 16:57:21 54° E 17:01:10 10° NNE
USA 267 3.4 16:51:30 10° SE 16:58:04 85° SW 17:04:40 10° NW
Cosmos 1674 Rocket 4.3 16:56:01 10° NNE 16:59:59 32° ENE 17:03:58 10° SE
Cosmos 1726 2.7 16:58:43 10° SSE 17:02:02 34° E 17:05:22 10° NNE
Cosmos 2082 3.8 16:57:35 10° NNW 17:03:16 60° ENE 17:08:55 10° SE
Cosmos 1697 Rocket 3.7 17:02:55 10° SW 17:08:22 50° WNW 17:13:50 10° NNE
Cosmos 1674 3.8 17:07:26 10° NNW 17:11:03 47° W 17:14:37 10° SSW
Cosmos 1766 3.8 17:07:40 10° SSE 17:11:14 36° E 17:14:51 10° NNE
Cosmos 2279 Rocket 4.0 17:07:50 10° N 17:14:08 86° E 17:20:24 10° S
Cosmos 2180 Rocket 4.4 17:13:10 10° N 17:19:25 72° E 17:25:42 10° SSE
Cosmos 2221 Rocket 3.5 17:17:38 10° N 17:22:11 79° E 17:26:43 10° S
ASTEX 1 4.1 17:18:07 10° N 17:23:01 60° W 17:27:55 10° SSW
Cosmos 968 Rocket 4.1 17:22:44 10° SSE 17:27:23 33° E 17:32:04 10° NE
Cosmos 1378 Rocket 3.4 17:24:56 10° N 17:29:18 68° E 17:33:37 10° SSE
Meteor 2-14 Rocket 4.3 17:25:22 10° S 17:31:25 84° E 17:37:30 10° N
Cosmos 1733 4.3 17:28:14 10° SSW 17:31:51 46° W 17:35:29 10° N
USA 229 DEB 4.1 17:25:48 10° NW 17:33:18 80° WSW 17:41:15 10° SSE
USA 229 4.1 17:25:54 10° NW 17:33:24 81° WSW 17:41:21 10° SSE
Cosmos 540 Rocket 4.0 17:30:45 10° NNW 17:35:47 60° WSW 17:40:47 10° S
Hubble Space Telescope 3.1 17:34:00 10° SW 17:35:49 13° S 17:37:20 11° SSE
Cosmos 2227 Rocket 4.0 17:31:13 10° NW 17:36:09 32° WSW 17:41:05 10° SSW
Cosmos 1733 Rocket 4.1 17:32:27 10° SSW 17:36:43 48° W 17:41:03 10° N
CZ-4B R/B 3.7 17:33:57 10° S 17:39:12 62° WSW 17:44:37 10° NNW
Cosmos 2322 Rocket 3.5 17:35:17 10° SSE 17:46:10 - NE 17:37:34 20° SE
CSL-04 Rocket 4.0 17:40:02 27° ESE 17:42:26 43° ENE 17:47:30 10° N
Feng Yun 1-1 Rocket 4.1 17:38:22 10° SSE 17:43:55 88° ENE 17:49:23 10° NNW
Cosmos 841 Rocket 3.6 17:41:37 10° NNW 17:46:48 77° WSW 17:51:55 10° SSE
Okean-O 3.1 17:46:36 38° E 17:47:02 39° ENE 17:51:10 10° N
Resurs 1-3 4.4 17:48:54 31° ENE 17:48:54 31° ENE 17:52:25 10° N
Meteor 2-21 Rocket 4.3 17:42:32 10° S 17:48:34 79° E 17:54:38 10° N
Cosmos 1980 Rocket 3.2 17:43:09 10° SW 17:48:35 48° WNW 17:54:01 10° NNE
Meteor 1-12 Rocket 4.3 17:43:39 10° S 17:49:37 81° E 17:55:40 10° NNE
CZ-4 R/B 1.8 17:45:47 10° S 17:49:53 64° WSW 17:54:04 10° NNW
ISS -3.0 17:46:44 10° NW 17:49:52 39° NNE 17:49:52 39° NNE
Cosmos 1570 Rocket 4.4 17:48:39 10° N 17:53:38 41° ENE 17:54:22 39° E
SJ-6B 2.9 17:54:52 49° NE 17:54:52 49° NE 17:58:06 10° N
Cosmos 1428 Rocket 4.4 17:52:35 10° S 17:58:36 59° E 18:04:41 10° NNE
Cosmos 2195 Rocket 4.4 17:52:35 10° S 17:58:40 62° E 18:04:51 10° NNE
OAO 2 Rocket 3.9 17:55:16 10° WSW 17:59:47 38° S 18:00:16 37° SSE
Cosmos 2278 4.0 17:58:03 10° SSW 18:03:43 66° WNW 18:09:23 10° NNE
Meteor 2-16 Rocket 4.4 17:59:33 10° S 18:05:41 89° W 18:11:52 10° N
USA 186 2.8 18:06:54 41° N 18:06:54 41° N 18:09:11 10° N
SL-16 R/B 2.1 18:01:25 10° S 18:07:00 63° ESE 18:12:36 10° NNE
Meteor 1-24 Rocket 3.6 18:03:35 10° N 18:08:48 55° ENE 18:09:12 54° E
Cosmos 1437 Rocket 2.8 18:08:21 10° SSW 18:12:06 70° W 18:15:51 10° N
Cosmos 2026 Rocket 3.8 18:10:09 10° S 18:16:11 72° E 18:22:13 10° NNE
Meteor 1-22 Rocket 4.0 18:10:54 10° S 18:16:13 83° E 18:21:46 10° N
Cosmos 2208 Rocket 4.2 18:11:43 10° N 18:16:50 53° ENE 18:16:50 53° ENE
SL-4 R/B 3.0 18:13:52 10° NW 18:18:03 41° NNE 18:18:03 41° NNE
Cosmos 2285 Rocket 3.9 18:11:55 10° NNW 18:18:18 88° ENE 18:20:53 39° SSE
Cosmos 1844 Rocket 3.8 18:13:26 10° N 18:17:37 29° NE 18:17:37 29° NE
Okean O Rocket 3.6 18:15:39 10° SSW 18:19:20 27° W 18:23:03 10° NW
Timation 2 Rocket 4.4 18:15:25 10° NNW 18:21:42 59° WSW 18:25:24 24° S
USA 81 3.9 18:17:58 10° N 18:23:04 69° ENE 18:23:04 69° ENE
BREEZE-M TANK 4.1 18:18:39 10° SW 18:24:53 34° S 18:24:53 34° S
Landsat 5 4.5 18:23:16 10° N 18:27:37 49° WNW 18:31:54 10° SSW
Cosmos 1782 Rocket 4.3 18:29:51 44° N 18:29:51 44° N 18:32:54 10° N
Cosmos 1814 Rocket 4.3 18:24:02 10° NNW 18:29:14 64° WSW 18:30:29 48° SSW
BREEZE M DEB (TANK) 3.1 18:26:22 10° WSW 18:31:25 51° W 18:31:25 51° W
Cosmos 2263 Rocket 3.2 18:30:28 10° NW 18:35:48 43° WSW 18:38:39 25° SSW
Cosmos 2227 4.3 18:33:18 10° NNW 18:38:54 70° WSW 18:39:33 63° SSW
Meteor 2-5 Rocket 3.9 18:34:41 10° NNW 18:40:11 68° W 18:41:16 54° SSW
Resurs 01 Rocket 3.8 19:05:25 20° NNW 19:05:25 20° NNW 19:06:49 10° NNW
Cosmos 2322 Rocket 4.3 19:18:13 10° SW 19:27:51 17° N 19:29:07 10° NNE
SL-16 R/B 4.4 19:47:22 10° W 19:51:33 21° NW 19:55:48 10° N
